148P/Anderson-LINEAR (2022)

Japanese version
Home page
Updated on September 9, 2021

---------------------------------------------------------------------

* Profile

* Orbital Elements

Epoch 2022 June 30.0 TT = JDT 2459760.5
T 2022 June 13.66731 TT                                 MPC
q   1.6287118            (2000.0)            P               Q
n   0.14324312     Peri.    8.03152     -0.12569034     -0.99001633
a   3.6175972      Node    89.20554     +0.90662349     -0.14073450
e   0.5497808      Incl.    3.65793     +0.40278504     +0.00783972
P   6.88
From 113 observations 1963 Nov. 22-2014 Sept. 3, mean residual 0".7.
     Nongravitational parameters A1 = +0.25, A2 = -0.0052.

* Magnitudes Graph

        m1 = 15.0 + 5 log d + 10.0 log r

---------------------------------------------------------------------

The orbital elements are published on M.P.E.C. 2014-R70.
The magnitudes graphs are made with Comet for Windows.

---------------------------------------------------------------------

Copyright(C) Seiichi Yoshida (comet@aerith.net). All rights reserved.